Regional Weather Roundup
Issued by NWS

Home | Current Version | Previous Version | Graphics & Text | Print | Product List | Glossary Off
Versions: 1 2 3 4 5 6 7 8 9 10 11 12 13 14 15 16 17 18 19 20 21 22 23 24 25 26 27 28 29 30 31 32 33 34 35 36 37 38 39 40 41 42 43 44 45 46 47 48 49 50

000
ASUS43 KMKX 230911
RWRWI

WISCONSIN REGIONAL WEATHER ROUNDUP
NATIONAL WEATHER SERVICE MILWAUKEE/SULLIVAN WI
400 AM CDT WED JUL 23 2014

NOTE: "FAIR" INDICATES FEW OR NO CLOUDS BELOW 12,000 FEET WITH NO
SIGNIFICANT WEATHER AND/OR OBSTRUCTIONS TO VISIBILITY.

WIZ001-002-006>008-014>016-023>028-231000-
NORTHWEST WISCONSIN

CITY           SKY/WX    TMP DP  RH WIND       PRES   REMARKS
SUPERIOR ARPT  CLEAR     52  52  99 S3        30.19R
ASHLAND        CLEAR     54  53  97 W3        30.18R
HAYWARD        FOG       52  52 100 CALM      30.19S VSB 1/4
SIREN          CLEAR     54  53  96 CALM      30.20R
RICE LAKE      CLEAR     56  55  95 CALM      30.20S FOG
LADYSMITH        N/A     57  55  95 CALM      30.20R FOG
EAU CLAIRE     CLEAR     59  58  96 CALM      30.17R
MENOMONIE      SUNNY     61  59  92 CALM      30.18S
NEW RICHMOND   CLEAR     57  57  97 CALM      30.20R
OSCEOLA        CLEAR     57  56  97 CALM      30.22R
$$

WIZ003>005-009-010-017-018-231000-
NORTH CENTRAL WISCONSIN

CITY           SKY/WX    TMP DP  RH WIND       PRES   REMARKS
WOODRUFF       FOG       52  49  89 CALM      30.19R VSB 1/2
RHINELANDER    CLEAR     54  53  97 CALM      30.19R
EAGLE RIVER    FOG       47  47 100 CALM      30.18R VSB 3/4
LAND O LAKES   MOCLDY    47  47 100 CALM      30.20R
PHILLIPS       PTCLDY    52  52  99 CALM      30.17S
TOMAHAWK       CLEAR     48  47  96 CALM      30.18S FOG
MEDFORD        FOG       52  52  99 CALM      30.18R VSB 1/2
MERRILL        FOG       50  50 100 CALM      30.18R VSB 1/2
$$

WIZ029-030-035-036-043>047-231000-
CENTRAL WISCONSIN

CITY           SKY/WX    TMP DP  RH WIND       PRES   REMARKS
WAUSAU         CLEAR     58  56  93 NW3       30.16S
MOSINEE        CLEAR     55  55 100 N3        30.18S
MARSHFIELD     CLEAR     58  56  93 CALM      30.17S
STEVENS POINT  CLEAR     55  54  97 CALM      30.17S
WAUPACA        CLEAR     59  57  94 N3        30.16R
WAUTOMA        CLEAR     57  55  93 CALM      30.16R
WISC RAPIDS    CLEAR     60  57  89 N7        30.17S
CAMP DOUGLAS   FOG       52  52 100 W2        30.17R VSB 1/2
$$

WIZ011>013-019>022-031-037>040-048>050-231000-
NORTHEAST WISCONSIN

CITY           SKY/WX    TMP DP  RH WIND       PRES   REMARKS
ANTIGO         FOG       52  52 100 CALM      30.18R VSB 1/2
STURGEON BAY   MOCLDY    61  54  77 N8        30.13R
GREEN BAY      CLEAR     59  56  89 N7        30.13S
MANITOWOC      CLEAR     60  56  86 N5        30.13R
APPLETON       CLEAR     57  54  88 N6        30.15R
CLINTONVILLE   CLEAR     57  55  94 CALM      30.14S
OSHKOSH        CLEAR     61  55  81 N7        30.13R
$$

WIZ032>034-041-042-053>061-231000-
SOUTHWEST WISCONSIN

CITY           SKY/WX    TMP DP  RH WIND       PRES   REMARKS
LA CROSSE      CLEAR     65  58  78 N5        30.16R
SPARTA         CLEAR     56  55  94 CALM      30.18R
VIROQUA        FAIR      60  57  91 N3        30.17S
BOSCOBEL       CLEAR     62  58  86 CALM      30.14R
PRAIRIE DU CHI CLEAR     67  57  69 N3        30.14R
PLATTEVILLE    FAIR      62  59  90 N7        30.14R
$$

WIZ056-057-062-063-064-067-068-231000-
SOUTH CENTRAL WISCONSIN

CITY           SKY/WX    TMP DP  RH WIND       PRES   REMARKS
BARABOO/DELLS  PTCLDY    61  56  84 N5        30.15R
LONE ROCK      CLEAR     66  59  78 CALM      30.14R
WATERTOWN      CLEAR     62  59  89 NE5       30.11S
MADISON        CLEAR     63  57  81 N6        30.13S
MIDDLETON      FAIR      63  59  87 N5        30.14R
MONROE         CLEAR     64  59  82 N10       30.12R
JANESVILLE     MOCLDY    66  59  77 E7        30.11R
$$

WIZ051-052-058>065-066-070>072-231000-
SOUTHEAST WISCONSIN

CITY           SKY/WX    TMP DP  RH WIND       PRES   REMARKS
MILWAUKEE      PTCLDY    61  56  83 N12       30.11R
WAUKESHA       CLEAR     59  54  82 N3        30.13S
MILWAUKEE/TIMM CLEAR     61  54  77 N7        30.12R
RACINE         CLEAR     61  56  83 N12       30.11S
BURLINGTON     CLEAR     59  55  88 NE6       30.12R
KENOSHA        CLEAR     62  57  83 N6        30.10R
FOND DU LAC    MOCLDY    65  55  70 N10       30.14R
SHEBOYGAN      CLEAR     58  55  90 NW6       30.12R
WEST BEND      CLEAR     61  54  77 N5        30.12R
JUNEAU         CLEAR     61  55  80 N6        30.14R
$$

LSZ147-162-231000-
LAKE SUPERIOR

STATION/POSITION TIME  TEMP    WIND        PRES    WAVE
                       AIR SEA DIR/SP/G            HT/PER
                 (UTC) (F)     (DEG/KT/KT) (MB)    (FT/S)
W MID LAKE BUOY  0850   52 39   70/  6/  8 1021.8R   1
PORT WING        0840   56     150/  3/  4 1021.7S
SAXON HARBOR     0800          180/  4/  6 1021.7R
$$

LMZ867-665-643>646-231000-
LAKE MICHIGAN

STATION/POSITION TIME  TEMP    WIND        PRES    WAVE
                       AIR SEA DIR/SP/G            HT/PER
                 (UTC) (F)     (DEG/KT/KT) (MB)    (FT/S)
N MID LAKE BUOY  0850   56 51  340/ 14/ 16 1018.3F   2/ 5
NORTHPORT PIER   0800   62     350/ 15/ 18 1019.3S
KEWAUNEE LAKESHO 0800   60     350/  5/  7 1020.1S
SHEBOYGAN LAKESH 0900   62     350/ 13/ 16 1019.8R
PORT WASHINGTON  0840   62     360/  5/ 10 1020.0R
ATWATER BUOY     0900   53     350/  8     1020.3R
MILWAUKEE LAKESH 0800           10/ 12/ 14   N/A
S MID LAKE BUOY  0850   62 60  340/ 21/ 25 1016.6R   6/ 6
KENOSHA   LAKESH 0900   62     360/ 18/ 20   N/A
$$

TC  - TEMPERATURE IN CELSIUS
VSB - VISIBILITY IN STATUTE MILES
WCI - WIND CHILL INDEX
HX  - HEAT INDEX



USA.gov is the U.S. government's official web portal to all federal, state and local government web resources and services.